Location: Karlsruhe
(49.0131°N, 8.3874°E)
Time: 04:33:06
(UTC+01:00)

ISS - Pass Details

Date: 11 February 2018
Orbit: 402 x 407 km, 51.6° (Epoch: 25 February)

Event Time Altitude Azimuth Distance (km) Brightness Sun altitude
Rises 19:23:55 0° 284° (WNW) 2,320 1.5 -17.5°
Reaches altitude 10° 19:26:31 10° 263° (W) 1,457 0.3 -17.9°
Maximum altitude 19:28:39 17° 221° (SW) 1,127 -1.1 -18.2°
Drops below altitude 10° 19:30:48 10° 180° (S) 1,452 -1.0 -18.6°
Enters shadow 19:31:22 - 173° (S) 1,614 -0.9 -18.7°
